Regional Weather Roundup
Issued by NWS Wakefield, VA

Home | Current Version | Previous Version | Text Only | Print | Product List | Glossary On
Versions: 1 2 3 4 5 6 7 8 9 10 11 12 13 14 15 16 17 18 19 20 21 22 23 24 25 26 27 28 29 30 31 32 33 34 35 36 37 38 39 40 41 42 43 44 45 46 47 48 49 50
000
ASUS41 KAKQ 020614
RWRAKQ
REGIONAL WEATHER ROUNDUP
NATIONAL WEATHER SERVICE WAKEFIELD VA
200 AM EDT THU APR 02 2015

Note: "fair" indicates few or no clouds below 12,000 feet with no
significant weather and/or obstructions to visibility. * = Denotes
station may not report precipitation (e.g., rain,snow,etc.),
thunder or fog.

VAZ042-051-052>054-056-020700-
NORTHERN VIRGINIA

CITY           SKY/WX    TMP DP  RH WIND       PRES   REMARKS
WASH NATIONAL  CLEAR     47  32  56 S8        30.26S
DULLES         CLEAR     37  27  67 S5        30.24F
FORT BELVOIR   CLEAR     35  27  75 CALM      30.25F
QUANTICO       CLEAR     47  31  53 SW7       30.27F
FREDERICKSBRG* FAIR      45  31  60 S6        30.26S
STAFFORD*      CLEAR     39  27  61 CALM      30.30S
WARRENTON      CLEAR     32  32 100 CALM      30.24S
CULPEPER*      CLEAR     34  30  86 CALM      30.25F
MANASSAS*      CLEAR     34  32  93 CALM      30.26R
LEESBURG*      CLEAR     32  32 100 W5        30.25R
WINCHESTER     CLEAR     45  21  39 S6        30.20F
FRONT ROYAL*   FAIR      45  27  49 SW3       30.19F
LURAY*         FAIR      37  30  75 SW3       30.21S
$$

VAZ048-049-060>072-079>083-020700-
CENTRAL AND SOUTH CENTRAL VIRGINIA

CITY           SKY/WX    TMP DP  RH WIND       PRES   REMARKS
RICHMOND       CLEAR     41  29  62 S5        30.28S
CHESTERFIELD*  NOT AVBL
PETERSBURG*    CLEAR     38  32  80 CALM      30.30R
HANOVER        CLEAR     41  30  65 VRB3      30.29S
TAPPAHANNOCK*  CLEAR     40  26  58 S3        30.28S
QUINTON*       FAIR      41  32  70 CALM      30.28F
CHARLOTTSVILLE CLEAR     45  25  45 S8        30.25S
GORDONSVILLE*  FAIR      35  29  78 SW5       30.26S
ORANGE*        CLEAR     36  30  80 CALM      30.27S
LOUISA*        CLEAR     45  28  53 S3        30.25S
BUMPASS*       FAIR      42  28  59 S3        30.26S
FARMVILLE*     CLEAR     45  29  53 S3        30.25F
CREWE*         FAIR      43  31  61 MISG      30.27S
FORT PICKETT*  FAIR      42  32  67 S8        30.28R
CHASE CITY*    FAIR      45  34  65 SE5       30.27R
CLARKSVILLE*   FAIR      45  32  61 SE3       30.26R
SOUTH HILL*    CLEAR     42  33  72 S3        30.34R
LAWRENCEVILLE* FAIR      41  33  74 CALM      30.28S
EMPORIA*       CLEAR     37  32  81 CALM      30.30F
$$

VAZ088>098-020700-
SOUTHEAST VIRGINIA

CITY           SKY/WX    TMP DP  RH WIND       PRES   REMARKS
NORFOLK        CLEAR     40  32  73 S6        30.29S
VIRGINIA BEACH CLEAR     40  32  73 CALM      30.30R
NORFOLK NAVAL  CLEAR     44  33  65 CALM      30.31R
WEST POINT*    CLEAR     41  31  67 CALM      30.30S
SALUDA*        FAIR      41  31  65 SW7       30.29R
NEWPORT NEWS   CLEAR     39  31  72 CALM      30.30R
LANGLEY AFB    CLEAR     41  34  77 SW3       30.29R
FORT EUSTIS    CLEAR     42  35  75 S5        30.27S
WILLIAMSBURG*  CLEAR     45  36  70 S5        30.30S
HR EXEC AP*    FAIR      34  28  80 CALM      30.31S
FRANKLIN*      CLEAR     39  32  77 CALM      30.30F
WAKEFIELD      NOT AVBL
$$

VAZ020-022-025-037-045-020700-
WEST CENTRAL AND SOUTHWEST VIRGINIA

CITY           SKY/WX    TMP DP  RH WIND       PRES   REMARKS
STAUNTON*      CLEAR     39  26  59 CALM      30.23F
WAYNESBORO*    FAIR      44  22  41 CALM      30.22S
HOT SPRINGS VA CLEAR     43  23  45 S9        30.18F
LYNCHBURG      CLEAR     40  27  59 CALM      30.25F
DANVILLE       CLEAR     42  33  70 CALM      30.24F
SOUTH BOSTON*  FAIR      44  30  59 SE5       30.25F
MARTINSVILLE   PTCLDY    37  32  82 CALM      30.27R
ROANOKE        PTCLDY    49  28  44 CALM      30.24S
BLACKSBURG     PTCLDY    37  30  75 CALM      30.24F
DUBLIN*        PTCLDY    38  26  63 CALM      30.24R
MARION*        CLEAR     47  21  36 NE5       30.22S
HILLSVILLE*    CLEAR     47  30  50 S6        30.22S
RICHLANDS*     FAIR      55  -9   7 S6        30.15S
WISE*          PTCLDY    55  19  24 S9        30.14F
ABINGDON*      CLEAR     49  27  41 CALM      30.16S
$$

MDZ021>025-VAZ099-100-020700-
SOUTHERN MARYLAND AND THE DELMARVA PENINSULA

CITY           SKY/WX    TMP DP  RH WIND       PRES   REMARKS
PATUXENT RIVER CLEAR     43  31  62 SW10      30.27R
BAY BRIDGE APT   N/A     43  32  65 S3        30.27R
LEONARDTOWN    CLEAR     39  30  70 S3        30.29R
DOVER          CLEAR     38  34  83 SW7       30.26R
GEORGETOWN     CLEAR     35  28  75 SW6       30.28R
EASTON         CLEAR     41  37  85 CALM      30.31R
CAMBRIDGE      CLEAR     39  36  87 SE3       30.27R
SALISBURY      CLEAR     36  31  82 CALM      30.27F
OCEAN CITY     CLEAR     39  29  67 W5        30.28R
WALLOPS ISLAND CLEAR     36  32  85 CALM      30.28S
ACCOMACK*      CLEAR     37  34  87 SW6       30.29R
$$

NCZ012>017-030>032-020700-
NORTH CENTRAL AND EASTERN NORTH CAROLINA

CITY           SKY/WX    TMP DP  RH WIND       PRES   REMARKS
ROANOKE RAPIDS FAIR      41  32  70 S3        30.30R
RALEIGH        PTCLDY    49  33  54 S7        30.27R
ELIZABETH CITY CLEAR     39  33  79 CALM      30.31S
AHOSKIE*       CLEAR     37  32  84 S3        30.30F
EDENTON*       CLEAR     42  35  76 S5        30.32R
CURRITUCK*     CLEAR     39  35  84 CALM      30.32R
KILL DEVIL HLS CLEAR     43  32  65 CALM      30.30S
MANTEO         CLEAR     35  32  87 CALM      30.31F
CAPE HATTERAS  CLEAR     35  30  82 NE5       30.31S
TARBORO*       FAIR      43  36  76 CALM      30.31S
GOLDSBORO      CLEAR     44  43  98 SE2       30.27S
WASHINGTON     CLEAR     40  35  80 CALM      30.31F
GREENVILLE     CLEAR     45  37  76 SE6       30.30F
NEW BERN       CLEAR     48  37  65 SE7       30.31F
WILMINGTON     CLEAR     53  36  52 E9        30.28F
$$

VAZ048-020700-
ELSEWHERE

CITY           SKY/WX    TMP DP  RH WIND       PRES   REMARKS
HARRISBURG PA  CLEAR     34  28  79 NE5       30.22S
BALTIMORE      CLEAR     40  27  59 CALM      30.25R
ANNAPOLIS      CLEAR     41  34  76 CALM      30.25R
ANDREWS AFB    CLEAR     41  29  63 S7        30.24S
PHILADELPHIA   CLEAR     38  30  73 S3        30.24R
HENDERSON NC   CLEAR     46  31  56 SE6       30.27S
GREENSBORO     MOCLDY    51  33  50 S10       30.23S
ROCKY MOUNT    CLEAR     45  35  68 S3        30.30R
$$

VAZ100-020700-
MARINE

STATION/POSITION TIME  TEMP    WIND        PRES    WAVE   SWELL
                       AIR SEA DIR/SP/G            HT/PER HT/PER
                 (UTC) (F)     (DEG/KT/KT) (MB)    (FT/S) (FT/S)
BRANDYWINE LGT   0500   41 41  230/ 13/ 14 1024.3S
CAPE MAY NJ      0500   41 44  230/  5/  7 1024.0S
LEWES DE         0500   39 42  220/  8/ 13 1024.5R
15NM E FENWICK I 0550   41 40              1024.9R   2/ 9
OCEAN-CITY-INLET 0500   42 42  260/  5/  8 1024.8R
WACHAPREAGUE VA  0500   41 51  240/  4/  5 1025.3F
THOMAS POINT MD  0600                        N/A
COVE POINT MD    0500   45     240/ 10/ 11 1024.5S
SOLOMONS ISLAND  0500      45                N/A
BISHOPS HEAD MD  0512          200/  6/  8   N/A
PINEY POINT MD   0512          200/  5/  6   N/A
CAMBRIDGE MD     0500   42 46  200/  5/  7 1024.7R
LEWISETTA VA     0500   44 47              1024.9R
RAPPAHANNOCK LGT 0500          190/ 11/ 12 1026.0R
STINGRAY PT      0600   45 46  230/  8/ 10   N/A     1
YORK RVR RNG VA  0500   46     220/  9/ 11 1025.0R
YORKTOWN VA      0500   44 47  210/  7/  9 1025.3R
DOMINION TERM VA 0500   44     190/  7/  8 1025.8F
KIPTOPEKE VA     0500      51  180/  7/  8   N/A
CHES BAY BRIDGE  0500   44 44  180/  7/  9 1025.3S
CAPE HENRY VA    0500   42     190/ 10/ 12 1024.3S
CHESAPEAKE LGHT  0500   43     200/ 13/ 13 1026.3S
WILLOUBY STN VA  0500   44     180/  8/  9 1026.2S
S CRANEY ISL VA  0500          180/  9/ 10 1025.8F
CAPE HENRY BUOY  0528      41                N/A     2/ 6
1ST LANDING BUOY 0600   44     210/ 10/ 10 1025.5R   1/ 3
OFFSHORE WE BUOY 0511      41                N/A     3/ 7   2/ 7
64NM E OF VA BCH 0550   50 53  160/  6/  8 1025.6S   3/ 7   3/ 7
DUCK PIER NC     0500   44 43  180/  5/  6 1025.3S
44056 DUCK FRF   0511      43                N/A     3/ 6
OREGON INLET NC  0500   42 47  170/  2/  3 1026.4S
HATTERAS NC      0500   45 58   80/  4/  5 1026.6F
CAPE LOOKOUT NC  0600   56      60/ 15/ 16 1025.8F
$$


USA.gov is the U.S. government's official web portal to all federal, state and local government web resources and services.